Simultaneous Nadir Overpasses (SNOs) Predictions

Prediction of SNOs between FY3D and AQUA Satellite Orbit:

Table of predicted SNOs for the next 14.0 days since TLE Epoch: 8/28/2021
Index Date (FY3D) Time (FY3D) Lat,Lon (FY3D) SZA (FY3D ) Date (AQUA) Time (AQUA) Lat,Lon (AQUA) SZA (AQUA ) Distance(km) Time Diff (sec)
1 08/29/2021 13:18:11 -68.85, 162.03 120.42 08/29/2021 13:19:25 -68.89, 162.19 120.37 7.99 74
2 08/29/2021 14:06:49 61.85, -23.41 52.90 08/29/2021 14:06:49 61.84, -23.39 52.90 1.03 0
3 08/29/2021 14:55:05 -53.57, 149.20 134.54 08/29/2021 14:53:51 -53.55, 149.20 134.62 2.43 74
4 09/01/2021 05:43:01 -76.22, 158.10 91.93 09/01/2021 05:44:14 -76.73, 155.32 91.67 92.50 73
5 09/01/2021 06:23:30 63.12, 91.48 55.07 09/01/2021 06:23:41 63.11, 91.50 55.07 1.40 11
6 09/01/2021 07:12:06 -56.00, -96.19 131.41 09/01/2021 07:11:03 -56.00, -96.18 131.45 0.71 63
7 09/03/2021 22:40:07 64.22,-153.57 57.10 09/03/2021 22:40:29 64.22,-153.54 57.10 1.55 22
8 09/03/2021 23:28:52 -57.64, 18.77 128.95 09/03/2021 23:28:00 -57.64, 18.78 128.98 0.35 52
9 09/06/2021 14:56:43 65.21, -38.58 59.04 09/06/2021 14:57:16 65.21, -38.55 59.04 1.42 33
10 09/06/2021 15:45:35 -59.04, 133.80 126.66 09/06/2021 15:44:54 -59.04, 133.80 126.68 0.17 41
11 09/09/2021 07:13:16 66.03, 76.52 60.84 09/09/2021 07:14:00 66.03, 76.54 60.84 1.01 44



Historial Predications of SNOs between FY3D and AQUA
